7 * 24
多渠道服务支持
STARLINK-3779是美国太空探索技术公司SpaceX星链(Starlink)星座的成员卫星,于2022年4月21日发射入轨。星链项目旨在构建全球卫星互联网星座,为全球偏远地区、海洋航空等场景提供高速宽带网络服务。作为低轨通信卫星,STARLINK-3779运行在近地轨道,依托星链组网实现全球互联网覆盖,支撑全球泛在互联的通信需求,是星链大规模组网过程中的重要组成部分。
美国
(US)
| 数据来源 | 国际轨道数据 |
| 星历时间: | 2026-09-02T10:52:33+0800 1天前 查看轨道信息 |
| 半长轴: | 6843.37km |
| 偏心率: | 0.0000982 |
| 轨道倾角: | 53.161° |
| 近地点辐角 | 88.125° |
| 升交点赤经 | 33.574° |
| 平近点角 | 271.986° |
| 近地点: | 464.56km |
| 远地点: | 465.906km |
| 周期: | 93.900分钟 |
| 每日圈数: | 15.335495 |
| 事件ID | 空间交会对象 | 最接近时刻(TCA) | 交会距离 | 交会风险概率(CRP) | 交会风险指数(CRI) | 操作 |
|---|---|---|---|---|---|---|
| CDM_260903-133505-228106-484322 |
STARLINK-3779
(52281)
STARLINK-34725
(64843) | 2026-09-03T 13:35:59+0000 |
1.981 km
极远距离 | 2.250985E-6 低风险 | 0.42 | |
| CDM_260829-163505-017705-228122 |
STARLINK-3282
(50177)
STARLINK-3779
(52281) | 2026-08-29T 16:35:39+0000 |
2.358 km
极远距离 | 1.649592E-6 低风险 | 0.39 | |
| CDM_260904-010505-228106-243621 |
STARLINK-3779
(52281)
STARLINK-32697
(62436) | 2026-09-04T 01:05:36+0000 |
2.573 km
极远距离 | 1.47549E-6 低风险 | 0.38 | |
| CDM_260905-053405-228106-821121 |
STARLINK-3779
(52281)
STARLINK-37120
(68211) | 2026-09-05T 05:34:14+0000 |
2.948 km
极远距离 | 1.218116E-6 低风险 | 0.37 | |
| CDM_260903-080505-228106-952621 |
STARLINK-3779
(52281)
STARLINK-37438
(69526) | 2026-09-03T 08:05:22+0000 |
2.577 km
极远距离 | 1.137338E-6 低风险 | 0.36 | |
| CDM_260904-222205-185505-228121 |
STARLINK-3545
(51855)
STARLINK-3779
(52281) | 2026-09-04T 22:22:22+0000 |
2.876 km
极远距离 | 1.079178E-6 低风险 | 0.36 | |
| CDM_260905-041505-228106-771321 |
STARLINK-3779
(52281)
STARLINK-36708
(67713) | 2026-09-05T 04:15:41+0000 |
2.500 km
极远距离 | 1.064335E-6 低风险 | 0.36 | |
| CDM_260831-161205-228106-370821 |
STARLINK-3779
(52281)
STARLINK-33915
(63708) | 2026-08-31T 16:12:00+0000 |
2.868 km
极远距离 | 1.019718E-6 低风险 | 0.35 | |
| CDM_260831-165505-228106-627021 |
STARLINK-3779
(52281)
STARLINK-35757
(66270) | 2026-08-31T 16:55:46+0000 |
2.632 km
极远距离 | 9.190896E-7 极低风险 | 0.34 | |
| CDM_260905-061505-228106-003421 |
STARLINK-3779
(52281)
STARLINK-32005
(60034) | 2026-09-05T 06:15:50+0000 |
2.802 km
极远距离 | 8.714626E-7 极低风险 | 0.34 |